Regional Weather Roundup
Issued by NWS Mobile, AL

Home | Current Version | Previous Version | Text Only | Print | Product List | Glossary On
Versions: 1 2 3 4 5 6 7 8 9 10 11 12 13 14 15 16 17 18 19 20 21 22 23 24 25 26 27 28 29 30 31 32 33 34 35 36 37 38 39 40 41 42 43 44 45 46 47 48 49 50
000
ASUS44 KMOB 281616
RWRMOB
REGIONAL WEATHER ROUNDUP
NATIONAL WEATHER SERVICE MOBILE AL
1100 AM CDT SAT MAR 28 2015

ALZ061>064-281700-
COASTAL ALABAMA


CITY           SKY/WX    TMP DP  RH WIND       PRES   REMARKS
MOBILE REG APT MOSUNNY   55  33  43 N7        30.27R
BROOKLEY FIELD SUNNY     54  35  48 NE8       30.28S
GULF SHORES    SUNNY     54  33  46 NE5       30.26F

$$

ALZ051>060-281700-
INTERIOR SOUTHWEST AND SOUTH CENTRAL ALABAMA


CITY           SKY/WX    TMP DP  RH WIND       PRES   REMARKS
ANDALUSIA/OPP  SUNNY     55  25  31 N8G16     30.24S
EVERGREEN      SUNNY     52  24  33 NE10      30.27R
FLORALA        SUNNY     52  22  30 VRB5      30.25S
GREENVILLE     FAIR      50  26  39 NW10      30.24R

$$

FLZ001>006-281700-
WESTERN FLORIDA PANHANDLE


CITY           SKY/WX    TMP DP  RH WIND       PRES   REMARKS
CRESTVIEW      SUNNY     54  29  38 VRB7      30.26S
DESTIN         SUNNY     55  34  45 N7        30.25F
DUKE FIELD     NOT AVBL
MARY ESTHER    SUNNY     55  27  34 N8        30.24S
MILTON         SUNNY     56  29  35 NW8       30.27R
PENSACOLA      SUNNY     54  33  45 VRB6      30.26S
NAS PENSACOLA  MOSUNNY   56  34  43 N6        30.25F
VALPARAISO     MOSUNNY   54  29  38 NW5       30.24F

$$

...MARINE OBSERVATIONS...

STATION/POSITION TIME  SKY/WX   TEMP    WIND        PRES    VSBY
                                AIR SEA DIR/SP/G
                 (UTC)          (F)     (DEG/KT/KT) (MB)    (MI)
PASCAGOULA       1500            53      30/  6/  8 1024.4S
PETIT BOIS ISL   1500            53      60/  8/ 11 1024.9R
E DAUPHIN ISLAND 1600            51      30/  9/ 11 1024.6F
MIDDLE BAY LIGHT 1500                    30/  8     1024.0S
USCG MOBILE BAY  1500            49 65   70/  5/  8 1023.9R
STATE DOCKS      1512            54 63              1024.7R
MEAHER PARK      1600            52     340/  5     1025.1S
FORT MORGAN      1500            51      40/  6/  7 1024.4R
12 S ORANGE BCH  1550            52 66   30/  8/ 12 1024.0F
WVE H/P(F/S)=  1/ 6

PENSACOLA BAY    1500            53 69  360/  6/  9 1025.1R
64 S DAUPHIN ISL 1550            57 71   50/  8/ 12 1025.2R
WVE H/P(F/S)=  3/ 4

115 SE PENSACOLA 1550            59 75  350/ 14/ 17 1024.9R
WVE H/P(F/S)=  4/ 6

MID GULF/42001   1550            74 80   20/  8/ 12 1024.1R
WVE H/P(F/S)=  4/ 6

EAST GULF/42003  1550            69 74   30/ 12/ 16 1022.6R
WVE H/P(F/S)=  6/ 8


$$

...NEARBY LOCATIONS

CITY           SKY/WX    TMP DP  RH WIND       PRES   REMARKS
GULFPORT       SUNNY     57  35  43 E8        30.26R
BILOXI         SUNNY     57  35  43 NE7       30.26R
PASCAGOULA     SUNNY     58  35  42 NE6       30.27R
HATTIESBURG    SUNNY     53  36  52 CALM      30.28S
LAUREL         SUNNY     52  30  43 NE5       30.28S
MERIDIAN       MOSUNNY   50  27  40 N3        30.29R
MERIDIAN NAS   NOT AVBL
MONTGOMERY     SUNNY     49  31  49 NW12      30.25S
MAXWELL AFB    SUNNY     47  29  49 VRB7      30.24R
TROY           SUNNY     50  28  42 VRB5      30.23S
FORT RUCKER    SUNNY     51  27  39 NW7       30.21S
DALEVILLE      SUNNY     51  20  30 W8        30.22S
DOTHAN         SUNNY     50  30  46 NW8       30.24F

$$

...OTHER SURROUNDING LOCATIONS...

CITY           SKY/WX    TMP DP  RH WIND       PRES   REMARKS
BIRMINGHAM     MOSUNNY   43  20  39 NW8       30.28R
TUSCALOOSA     MOSUNNY   47  23  38 N8        30.30R
COLUMBUS GA    SUNNY     47  23  38 NW12      30.19S
PANAMA CITY    NOT AVBL
TALLAHASSEE    SUNNY     56  29  35 NW13      30.22S
BATON ROUGE    SUNNY     60  36  40 E8        30.25R
NEW ORLEANS    MOSUNNY   61  38  42 E8        30.26R
SLIDELL        SUNNY     58  37  45 E7        30.27R
JACKSON        PTSUNNY   52  31  44 N7        30.27R
MCCOMB         SUNNY     54  36  50 VRB5      30.25S

$$

...SURROUNDING MARINE OBSERVATIONS...

STATION/POSITION TIME  SKY/WX   TEMP    WIND        PRES    VSBY
                                AIR SEA DIR/SP/G
                 (UTC)          (F)     (DEG/KT/KT) (MB)    (MI)
WAVELAND         1500            52 64   80/  3/  7 1024.3S
PASCAGOULA RGN A 1500            54      70/  8/ 10 1024.3R
PASCAGOULA PORT  1506               68                N/A
GRAND ISLE       1500            60 65   90/  7/ 11 1024.3R
SOUTHWEST PASS   1600            58      50/ 14/ 15 1024.3S
PILOT STATION E  1500            63 52   60/ 10/ 12 1024.8R
SHELL BEACH      1500            56 64   90/  5/  7 1024.7R
PANAMA CITY      1500            52 66  330/  7/ 12 1023.8R
APALACHICOLA     1500            53 66  340/  8/ 11 1023.3R
TYNDALL TOWER C  1600            53     310/ 11/ 13 1024.0R
S APLCHCLA/42036 1550            59 68  330/ 16/ 17 1023.5S
WVE H/P(F/S)=  5/ 7


$$



USA.gov is the U.S. government's official web portal to all federal, state and local government web resources and services.